Change the Weather History Date:

Thursday, September 12, 2013

  Actual Average Record
Temperature  
Mean Temperature 83 °F -  
Max Temperature 93 °F - 97 °F (2010)
Min Temperature 72 °F - 64 °F (2011)
Degree Days  
Heating Degree Days 0    
Cooling Degree Days 18    
Growing Degree Days 32 (Base 50)    
Moisture  
Dew Point 73 °F    
Average Humidity 74    
Maximum Humidity 100    
Minimum Humidity 47    
Precipitation  
Precipitation 0.00 in - 0.00 in (2015)
Month to date precipitation  
Year to date precipitation  
Sea Level Pressure  
Sea Level Pressure 30.02 in    
Wind  
Wind Speed 4 mph (NE)    
Max Wind Speed 28 mph    
Max Gust Speed 29 mph    
Visibility 10 miles    
Events Rain    
T = Trace of Precipitation, MM = Missing Value Source: NWS Daily Summary

Daily Weather History Graph

Daily Weather History Graph

Search for Another Location

Airport or City:

Trip Planner

Search our weather history database for the weather conditions in past years. The results will help you decide how hot, cold, wet, or windy it might be!

Date:

Astronomy

Sep. 12, 2013 Rise Set
Actual Time 7:26 AM EDT 7:52 PM EDT
Civil Twilight 7:02 AM EDT 8:16 PM EDT
Nautical Twilight 6:33 AM EDT 8:44 PM EDT
Astronomical Twilight 6:05 AM EDT 9:12 PM EDT
Moon 2:25 PM EDT (9/12) 12:15 AM EDT (9/12)
Length of Visible Light 13h 14m
Length of Day
12h 25m
Waxing Crescent, 50% of the Moon is Illuminated
Sep 12
Waxing Crescent
Sep 12
First Quarter
Sep 19
Full
Sep 26
Last Quarter
Oct 4
New

Hourly Weather History & Observations

Time (EDT) Temp. Heat Index Dew Point Humidity Pressure Visibility Wind Dir Wind Speed Gust Speed Precip Events Conditions
12:53 AM 77.0 °F - 75.0 °F 94% 30.09 in 10.0 mi NE 4.6 mph - 0.00 in Rain Light Rain
1:53 AM 75.9 °F - 75.0 °F 97% 30.07 in 10.0 mi Calm Calm - 0.00 in   Overcast
2:53 AM 75.0 °F - 73.0 °F 94% 30.06 in 10.0 mi ENE 4.6 mph - N/A   Clear
3:53 AM 73.9 °F - 73.0 °F 97% 30.06 in 10.0 mi Calm Calm - N/A   Clear
4:53 AM 73.0 °F - 73.0 °F 100% 30.06 in 10.0 mi NE 3.5 mph - N/A   Clear
5:53 AM 72.0 °F - 72.0 °F 100% 30.06 in 9.0 mi Calm Calm - N/A   Clear
6:53 AM 72.0 °F - 72.0 °F 100% 30.06 in 9.0 mi NNE 3.5 mph - N/A   Clear
7:53 AM 72.0 °F - 72.0 °F 100% 30.07 in 8.0 mi NNE 3.5 mph - N/A   Clear
8:53 AM 75.9 °F - 73.9 °F 94% 30.07 in 10.0 mi NE 5.8 mph - N/A   Clear
9:53 AM 80.1 °F 85.1 °F 75.0 °F 85% 30.07 in 10.0 mi ENE 8.1 mph - N/A   Clear
10:53 AM 84.0 °F 91.2 °F 73.9 °F 72% 30.07 in 10.0 mi Variable 4.6 mph - N/A   Clear
11:53 AM 88.0 °F 94.7 °F 72.0 °F 59% 30.06 in 10.0 mi NNE 6.9 mph - N/A   Clear
12:53 PM 90.0 °F 96.4 °F 71.1 °F 54% 30.05 in 10.0 mi NE 6.9 mph - N/A   Clear
1:53 PM 91.0 °F 95.2 °F 68.0 °F 47% 30.03 in 10.0 mi Variable 6.9 mph - N/A   Scattered Clouds
2:53 PM 90.0 °F 92.8 °F 66.9 °F 46% 30.00 in 10.0 mi Calm Calm - N/A   Scattered Clouds
3:53 PM 91.9 °F 95.9 °F 68.0 °F 45% 29.97 in 10.0 mi NE 8.1 mph - N/A   Mostly Cloudy
4:53 PM 88.0 °F 95.6 °F 73.0 °F 61% 29.95 in 10.0 mi West 3.5 mph - N/A   Scattered Clouds
5:53 PM 87.1 °F 95.4 °F 73.9 °F 65% 29.95 in 10.0 mi SW 9.2 mph 28.8 mph N/A   Scattered Clouds
6:53 PM 84.9 °F 91.4 °F 73.0 °F 67% 29.94 in 10.0 mi SSW 11.5 mph - N/A   Scattered Clouds
7:53 PM 82.0 °F 87.9 °F 73.9 °F 76% 29.95 in 10.0 mi SW 6.9 mph - N/A   Scattered Clouds
8:53 PM 80.1 °F 85.1 °F 75.0 °F 85% 29.96 in 10.0 mi SW 3.5 mph - N/A   Clear
9:53 PM 78.1 °F - 77.0 °F 96% 29.98 in 10.0 mi Calm Calm - N/A   Clear
10:53 PM 75.9 °F - 75.9 °F 100% 29.98 in 10.0 mi Calm Calm - N/A   Clear
11:53 PM 75.0 °F - 75.0 °F 100% 29.98 in 10.0 mi Calm Calm - N/A   Clear